This is the latest recevied weather packets stored in our database for station/object KG5EO. If no packets are shown the sender has not sent any weather packets the latest 1 day(s).
| Time | Temp. | Humidity | Pressure | Rain* | Wind** | Luminosity | Snow |
|---|---|---|---|---|---|---|---|
| 1778037082 | 21.67° C | 31% | 41 hPa | 0 mm | 0.89 m/s, 295° | - | - |
| 1778036781 | 21.67° C | 31% | 41 hPa | 0 mm | 0 m/s | - | - |
| 1778036481 | 21.67° C | 31% | 41 hPa | 0 mm | 0 m/s | - | - |
| 1778036181 | 21.67° C | 31% | 40.9 hPa | 0 mm | 1.34 m/s, 299° | - | - |
| 1778035881 | 21.67° C | 30% | 41 hPa | 0 mm | 0.89 m/s, 278° | - | - |
| 1778035581 | 22.22° C | 30% | 40.9 hPa | 0 mm | 0.45 m/s, 286° | - | - |
| 1778035281 | 22.22° C | 29% | 40.9 hPa | 0 mm | 2.24 m/s, 263° | - | - |
| 1778034980 | 22.22° C | 29% | 40.9 hPa | 0 mm | 1.34 m/s, 269° | - | - |
| 1778034680 | 22.22° C | 29% | 40.9 hPa | 0 mm | 0 m/s | - | - |
| 1778034381 | 22.22° C | 29% | 40.9 hPa | 0 mm | 1.79 m/s, 292° | - | - |
| 1778034080 | 22.22° C | 28% | 40.9 hPa | 0 mm | 1.34 m/s, 258° | - | - |
| 1778033782 | 22.78° C | 28% | 40.9 hPa | 0 mm | 2.68 m/s, 284° | - | - |
| 1778033480 | 22.78° C | 28% | 40.9 hPa | 0 mm | 1.79 m/s, 250° | - | - |
| 1778033179 | 22.78° C | 27% | 40.9 hPa | 0 mm | 0.89 m/s, 316° | - | - |
| 1778032879 | 22.78° C | 27% | 40.9 hPa | 0 mm | 1.34 m/s, 296° | - | - |
| 1778032579 | 23.33° C | 27% | 40.9 hPa | 0 mm | 0.89 m/s, 249° | - | - |
| 1778032281 | 23.33° C | 26% | 40.9 hPa | 0 mm | 1.34 m/s, 245° | - | - |
| 1778031979 | 23.89° C | 26% | 40.9 hPa | 0 mm | 2.24 m/s, 243° | - | - |
| 1778031679 | 23.89° C | 26% | 40.9 hPa | 0 mm | 1.34 m/s, 267° | - | - |
| 1778031378 | 23.89° C | 25% | 40.9 hPa | 0 mm | 1.34 m/s, 304° | - | - |
| 1778031078 | 23.89° C | 25% | 40.9 hPa | 0 mm | 1.79 m/s, 275° | - | - |
| 1778030778 | 23.89° C | 25% | 40.9 hPa | 0 mm | 2.68 m/s, 309° | - | - |
| 1778030478 | 23.89° C | 25% | 40.9 hPa | 0 mm | 2.24 m/s, 274° | - | - |
| 1778030179 | 23.89° C | 25% | 40.9 hPa | 0 mm | 1.79 m/s, 254° | - | - |
| 1778029878 | 23.89° C | 25% | 40.9 hPa | 0 mm | 4.02 m/s, 326° | - | - |
* Rain latest hour (hover to see other rain measurements)
** Current wind speed in m/s (hover to see current wind gust speed)